User: anonymous   Login
Location: Unspecified
(0.0000°N, 0.0000°E)
Time: 07:47:11
(UTC+02:00)
Language:

Cosmos 2082 Rocket - Orbit

View from above orbital plane
View from above orbital plane
View from above satellite
View from above satellite

Ground track
Ground track

The orbit data is extracted from the following two-line orbital elements,

1 20625U 90046B   15212.33214164  .00000139  00000-0  96896-4 0  9994
2 20625 070.9988 150.6631 0012355 068.0568 058.6498 14.14576128300708
Epoch (UTC): 31 July 2015 07:58:17
Eccentricity: 0.0012355
inclination: 70.9988°
perigee height: 835 km
apogee height: 852 km
right ascension of ascending node: 150.6631°
argument of perigee: 68.0568°
revolutions per day: 14.14576128
mean anomaly at epoch: 58.6498°
orbit number at epoch: 30070

The dashed part of the orbit path shows where the satellite is in the earth's shadow,  

DLR